FW8478 Weather Reports


time (UTC)temp
F
wind
direction
speed
knots
gust
knots
rain 1hr
in
rain 24hr
in
rain mn
in
humidity
%
barometer
mb
20260507105552 37 0 0.9 1.7 0.00 0.14 0.04 96 1017.7
20260507105052 37 160 0.9 1.7 0.00 0.14 0.04 96 1017.8
20260507104600 37 0 0.0 1.7 0.00 0.14 0.04 96 1017.9
20260507104055 37 160 0.0 1.7 0.00 0.14 0.04 96 1017.9
20260507103552 37 0 0.9 3.5 0.00 0.14 0.04 96 1017.8
20260507103117 37 160 0.0 3.5 0.00 0.14 0.04 96 1017.9
20260507102552 37 160 0.9 3.5 0.00 0.14 0.04 96 1017.9
20260507102052 37 0 0.0 3.5 0.00 0.14 0.04 96 1017.8
20260507101553 37 93 1.7 3.5 0.00 0.14 0.04 96 1017.8
20260507101051 37 138 0.9 3.5 0.00 0.14 0.04 96 1017.9
20260507100554 37 0 0.0 2.6 0.00 0.14 0.04 96 1017.7
20260507100106 37 148 0.0 2.6 0.01 0.14 0.04 96 1017.8
20260507095552 37 0 0.0 2.6 0.01 0.14 0.04 95 1017.8
20260507095054 37 0 0.0 1.7 0.01 0.14 0.04 96 1017.7
20260507094552 38 148 0.0 1.7 0.01 0.14 0.04 95 1017.7
20260507094051 38 0 0.0 1.7 0.02 0.14 0.04 96 1017.7
20260507093551 38 0 0.0 1.7 0.03 0.14 0.04 96 1017.6
20260507093055 38 148 0.0 1.7 0.03 0.14 0.04 95 1017.7
20260507092551 38 0 0.0 1.7 0.03 0.14 0.04 95 1017.7
20260507092052 38 148 0.0 1.7 0.03 0.14 0.04 95 1017.6
20260507091554 38 148 0.0 1.7 0.03 0.14 0.04 95 1017.7
20260507091052 38 0 0.0 1.7 0.04 0.14 0.04 95 1017.6
20260507090552 38 0 0.0 1.7 0.04 0.14 0.04 95 1017.6
20260507090059 38 235 0.0 1.7 0.03 0.13 0.03 95 1017.5
20260507085552 38 235 0.0 1.7 0.03 0.13 0.03 95 1017.6
20260507085056 38 0 0.0 2.6 0.03 0.13 0.03 95 1017.5
20260507084604 38 0 0.0 3.5 0.04 0.13 0.03 95 1017.4
20260507084051 38 0 0.0 3.5 0.03 0.12 0.02 95 1017.4
20260507083552 38 0 0.0 2.6 0.02 0.11 0.01 95 1017.3
20260507083054 38 0 0.9 6.1 0.03 0.11 0.01 94 1017.2
20260507082552 38 254 1.7 6.1 0.03 0.11 0.01 94 1017.2
20260507082051 38 253 0.9 3.5 0.04 0.11 0.01 94 1017.1
20260507081557 38 257 1.7 3.5 0.04 0.11 0.01 94 1017.1
20260507081051 38 250 0.9 3.5 0.03 0.10 0.00 94 1017.0
20260507080553 38 250 0.0 3.5 0.04 0.10 0.00 93 1017.0
20260507080056 38 0 0.0 2.6 0.04 0.10 0.00 93 1016.9
20260507075554 38 0 0.0 3.5 0.04 0.10 0.10 93 1017.0
20260507075052 38 252 0.9 3.5 0.04 0.10 0.10 93 1016.8
20260507074557 38 272 1.7 3.5 0.03 0.09 0.09 92 1016.7
20260507074051 38 271 0.9 5.2 0.03 0.09 0.09 93 1016.7
20260507073553 39 279 1.7 7.0 0.03 0.09 0.09 93 1016.7
20260507073054 39 281 1.7 7.0 0.02 0.08 0.08 94 1016.7
20260507072552 39 233 0.9 5.2 0.02 0.08 0.08 94 1016.8
20260507072055 39 243 0.9 5.2 0.01 0.07 0.07 94 1016.7
20260507071604 39 209 0.9 4.3 0.01 0.07 0.07 94 1016.7
20260507071051 39 0 1.7 4.3 0.01 0.07 0.07 94 1016.7
20260507070551 39 0 0.9 5.2 0.00 0.06 0.06 94 1016.6
20260507070105 39 234 1.7 5.2 0.00 0.06 0.06 94 1016.5
20260507065551 39 250 1.7 4.3 0.00 0.06 0.06 94 1016.5
20260507065054 39 242 0.9 3.5 0.00 0.06 0.06 94 1016.6
20260507064600 39 254 0.9 3.5 0.00 0.06 0.06 94 1016.3
20260507064055 39 216 0.0 3.5 0.00 0.06 0.06 94 1016.4
20260507063552 39 0 0.0 3.5 0.00 0.06 0.06 94 1016.3
20260507063057 39 0 0.0 3.5 0.00 0.06 0.06 94 1016.2
20260507062555 39 0 0.9 2.6 0.01 0.06 0.06 94 1016.1
20260507062052 40 180 0.0 2.6 0.01 0.06 0.06 94 1016.0
20260507061558 40 213 0.0 2.6 0.01 0.06 0.06 94 1016.0
20260507061051 40 213 0.0 2.6 0.01 0.06 0.06 94 1015.9
20260507060552 40 163 0.0 2.6 0.01 0.06 0.06 94 1015.8
20260507060055 40 0 0.0 4.3 0.02 0.06 0.06 95 1015.8
20260507055552 40 155 0.0 4.3 0.02 0.06 0.06 94 1015.7
20260507055051 40 162 0.9 4.3 0.03 0.06 0.06 94 1015.7
20260507054609 40 182 0.9 4.3 0.03 0.06 0.06 94 1015.7
20260507054051 40 0 1.7 4.3 0.04 0.06 0.06 94 1015.7
20260507053554 40 153 0.9 6.1 0.05 0.06 0.06 93 1015.6
20260507053105 40 188 0.9 6.1 0.05 0.06 0.06 94 1015.6
20260507052551 40 204 1.7 6.1 0.04 0.05 0.05 93 1015.6
20260507052051 40 126 1.7 5.2 0.04 0.05 0.05 93 1015.6
20260507051558 40 153 0.9 7.0 0.04 0.05 0.05 93 1015.6
20260507051052 40 146 1.7 7.8 0.04 0.05 0.05 92 1015.6
20260507050549 40 132 3.5 7.8 0.04 0.05 0.05 92 1015.5
20260507050059 41 149 2.6 7.0 0.03 0.04 0.04 91 1015.6
20260507045553 41 215 1.7 7.0 0.03 0.04 0.04 91 1015.6
20260507045049 41 196 1.7 7.0 0.02 0.03 0.03 90 1015.6
20260507044556 42 238 2.6 7.8 0.02 0.03 0.03 89 1015.6
20260507044052 42 234 3.5 7.8 0.01 0.02 0.02 88 1015.7
20260507043551 43 246 2.6 7.8 0.00 0.01 0.01 88 1015.6
20260507043053 43 225 2.6 6.1 0.00 0.01 0.01 87 1015.5
20260507042556 43 215 1.7 5.2 0.00 0.01 0.01 88 1015.5
20260507042048 43 193 1.7 5.2 0.01 0.01 0.01 87 1015.5
20260507041602 44 250 0.0 6.1 0.01 0.01 0.01 86 1015.4
20260507041054 44 221 1.7 6.1 0.01 0.01 0.01 86 1015.4
20260507040550 44 0 2.6 6.1 0.01 0.01 0.01 85 1015.3
20260507040057 44 253 0.0 3.5 0.01 0.01 0.01 87 1015.3
20260507035549 44 0 0.0 1.7 0.01 0.01 0.01 87 1015.3
20260507035049 43 0 0.0 2.6 0.01 0.01 0.01 88 1015.3
20260507034609 43 0 0.0 2.6 0.01 0.01 0.01 87 1015.2
20260507034049 43 0 0.0 3.5 0.01 0.01 0.01 86 1015.2
20260507033552 43 250 0.9 3.5 0.01 0.01 0.01 85 1015.1
20260507033056 44 271 1.7 3.5 0.01 0.01 0.01 84 1015.1
20260507032554 44 213 1.7 4.3 0.01 0.01 0.01 84 1015.0
20260507032056 44 229 0.9 4.3 0.00 0.00 0.00 83 1015.1
20260507031600 45 251 1.7 3.5 0.00 0.00 0.00 82 1015.1
20260507031049 45 246 1.7 4.3 0.00 0.00 0.00 81 1014.9
20260507030549 45 211 0.9 5.2 0.00 0.00 0.00 81 1014.9
20260507030053 45 195 1.7 5.2 0.00 0.00 0.00 79 1014.9
20260507025551 45 220 0.9 4.3 0.00 0.00 0.00 79 1014.8
20260507025052 46 250 0.9 7.8 0.00 0.00 0.00 79 1014.8
20260507024557 46 225 1.7 7.8 0.00 0.00 0.00 78 1014.7
20260507024050 46 215 2.6 7.8 0.00 0.00 0.00 77 1014.8
20260507023554 46 267 0.9 7.0 0.00 0.00 0.00 76 1014.7
20260507023052 46 184 2.6 7.0 0.00 0.00 0.00 75 1014.7
20260507022552 46 271 1.7 7.0 0.00 0.00 0.00 75 1014.7
20260507022052 46 221 3.5 9.6 0.00 0.00 0.00 74 1014.6
20260507021627 46 239 4.3 9.6 0.00 0.00 0.00 73 1014.6
20260507021051 47 213 3.5 7.8 0.00 0.00 0.00 71 1014.6
20260507020550 47 204 3.5 7.0 0.00 0.00 0.00 71 1014.6
20260507020112 47 186 2.6 7.0 0.00 0.00 0.00 73 1014.6
20260507015554 47 250 2.6 8.7 0.00 0.00 0.00 73 1014.5
20260507015051 47 215 2.6 8.7 0.00 0.00 0.00 73 1014.5
20260507014620 47 223 1.7 7.8 0.00 0.00 0.00 72 1014.5
20260507014051 47 182 3.5 8.7 0.00 0.00 0.00 70 1014.5
20260507013551 48 197 3.5 8.7 0.00 0.00 0.00 71 1014.5
20260507013053 48 270 2.6 8.7 0.00 0.00 0.00 71 1014.5
20260507012551 48 211 3.5 8.7 0.00 0.00 0.00 71 1014.5
20260507012050 48 264 2.6 6.1 0.00 0.00 0.00 72 1014.5
20260507011601 48 240 2.6 6.1 0.00 0.00 0.00 71 1014.4
20260507011050 48 227 2.6 6.1 0.00 0.00 0.00 72 1014.5
20260507010553 48 242 1.7 7.8 0.00 0.00 0.00 72 1014.5
20260507010054 48 266 2.6 7.8 0.00 0.00 0.00 73 1014.4
20260507005550 48 272 0.9 7.8 0.00 0.00 0.00 70 1014.3
20260507005052 48 228 2.6 7.8 0.00 0.00 0.00 72 1014.2
20260507004557 48 205 2.6 7.8 0.00 0.00 0.00 72 1014.3
20260507004049 48 244 1.7 7.8 0.00 0.00 0.00 72 1014.3
20260507003556 48 196 2.6 7.8 0.00 0.00 0.00 72 1014.2
20260507003057 48 218 1.7 7.0 0.00 0.00 0.00 72 1014.3
20260507002552 48 240 1.7 7.0 0.00 0.00 0.00 72 1014.1
20260507002051 48 232 1.7 7.0 0.00 0.00 0.00 72 1014.2
20260507001602 49 180 3.5 7.8 0.00 0.00 0.00 70 1014.2
20260507001052 49 203 3.5 8.7 0.00 0.00 0.00 69 1014.2
20260507000553 49 233 2.6 8.7 0.00 0.00 0.00 68 1014.2
20260507000123 49 228 2.6 8.7 0.00 0.00 0.00 68 1014.2
20260506235548 49 217 3.5 8.7 0.00 0.00 0.00 67 1014.1
20260506235051 49 226 2.6 11.3 0.00 0.00 0.00 69 1014.0
20260506234618 49 188 3.5 11.3 0.00 0.00 0.00 69 1014.1
20260506234051 49 175 2.6 7.8 0.00 0.00 0.00 69 1014.0
20260506233554 49 207 2.6 8.7 0.00 0.00 0.00 68 1014.0
20260506233052 48 244 1.7 8.7 0.00 0.00 0.00 69 1014.0
20260506232549 49 215 3.5 7.8 0.00 0.00 0.00 68 1014.0
20260506232051 49 188 3.5 9.6 0.00 0.00 0.00 68 1013.9
20260506231553 49 205 3.5 9.6 0.00 0.00 0.00 67 1014.0
20260506231051 49 134 2.6 7.8 0.00 0.00 0.00 66 1013.8
20260506230551 50 209 1.7 7.8 0.00 0.00 0.00 67 1013.9
20260506230104 50 238 2.6 7.8 0.00 0.00 0.00 67 1013.9
20260506225551 50 225 2.6 9.6 0.00 0.00 0.00 66 1013.8
20260506225052 49 288 2.6 9.6 0.00 0.00 0.00 66 1013.8
20260506224552 50 222 4.3 10.4 0.00 0.00 0.00 65 1013.7
20260506224050 50 207 3.5 10.4 0.00 0.00 0.00 65 1013.7
20260506223551 50 192 1.7 8.7 0.00 0.00 0.00 65 1013.6
20260506223105 50 242 3.5 8.7 0.00 0.00 0.00 66 1013.6
20260506222551 50 288 4.3 8.7 0.00 0.00 0.00 67 1013.6
20260506222049 50 190 1.7 7.8 0.00 0.00 0.00 68 1013.6
20260506221602 49 267 3.5 7.8 0.00 0.00 0.00 69 1013.6
20260506221049 50 179 3.5 7.8 0.00 0.00 0.00 69 1013.6
20260506220549 49 201 0.9 4.3 0.00 0.00 0.00 71 1013.5
20260506220057 49 244 0.9 5.2 0.00 0.00 0.00 72 1013.5
20260506215554 48 250 1.7 5.2 0.00 0.00 0.00 71 1013.6
20260506215051 48 244 0.9 7.0 0.00 0.00 0.00 74 1013.5
20260506214601 47 251 1.7 7.0 0.00 0.00 0.00 73 1013.5
20260506214050 47 260 2.6 6.1 0.00 0.00 0.00 74 1013.5
20260506213552 47 271 2.6 6.1 0.00 0.00 0.00 73 1013.4
20260506213101 48 272 3.5 6.1 0.00 0.00 0.00 73 1013.4
20260506212552 48 248 1.7 5.2 0.00 0.00 0.00 73 1013.3
20260506212050 48 247 1.7 5.2 0.00 0.00 0.00 73 1013.3
20260506211556 48 266 1.7 6.1 0.00 0.00 0.00 74 1013.3
20260506211051 48 223 1.7 6.1 0.00 0.00 0.00 72 1013.2
20260506210553 48 229 1.7 6.1 0.00 0.00 0.00 72 1013.1
20260506210055 48 254 2.6 6.1 0.00 0.00 0.00 74 1013.1
20260506205549 47 233 2.6 6.1 0.00 0.00 0.00 74 1013.2
20260506205052 47 271 1.7 6.1 0.00 0.00 0.00 74 1013.1
20260506204556 47 277 1.7 6.1 0.00 0.00 0.00 73 1013.1
20260506204052 47 233 2.6 6.1 0.00 0.00 0.00 74 1013.0
20260506203552 47 273 2.6 7.8 0.00 0.00 0.00 74 1012.9
20260506203054 47 278 4.3 7.8 0.00 0.00 0.00 72 1012.9
20260506202552 47 281 0.9 6.1 0.00 0.00 0.00 71 1012.8
20260506202050 48 304 1.7 6.1 0.00 0.00 0.00 70 1012.9
20260506201553 48 260 1.7 5.2 0.00 0.00 0.00 70 1012.8
20260506201049 48 256 0.9 4.3 0.00 0.00 0.00 70 1012.7
20260506200550 47 256 0.9 4.3 0.00 0.00 0.00 72 1012.7
20260506200054 47 161 1.7 4.3 0.00 0.00 0.00 71 1012.7
20260506195549 47 167 1.7 4.3 0.00 0.00 0.00 70 1012.7
20260506195053 47 180 1.7 4.3 0.00 0.00 0.00 70 1012.7
20260506194557 47 129 0.9 4.3 0.00 0.00 0.00 72 1012.6
20260506194052 47 190 1.7 3.5 0.00 0.00 0.00 70 1012.7
20260506193552 47 242 0.0 3.5 0.00 0.00 0.00 74 1012.6
20260506193057 47 242 1.7 3.5 0.00 0.00 0.00 73 1012.6
20260506192550 46 260 0.0 4.3 0.00 0.00 0.00 74 1012.7
20260506192050 46 150 1.7 4.3 0.00 0.00 0.00 73 1012.6
20260506191601 46 191 1.7 4.3 0.00 0.00 0.00 73 1012.6
20260506191053 45 163 0.9 3.5 0.00 0.00 0.00 78 1012.5
20260506190555 45 96 0.9 3.5 0.00 0.00 0.00 77 1012.5
20260506190054 45 132 1.7 3.5 0.00 0.00 0.00 78 1012.5
20260506185605 44 58 0.9 3.5 0.00 0.00 0.00 80 1012.5
20260506185051 44 348 0.9 2.6 0.00 0.00 0.00 80 1012.5
20260506184600 43 348 1.7 2.6 0.00 0.00 0.00 79 1012.5
20260506184051 43 348 0.9 6.1 0.00 0.00 0.00 79 1012.5
20260506183552 43 85 1.7 6.1 0.00 0.00 0.00 80 1012.5
20260506183103 43 360 1.7 3.5 0.00 0.00 0.00 82 1012.5
20260506182549 43 5 0.9 2.6 0.00 0.00 0.00 82 1012.5
20260506182050 43 319 0.9 2.6 0.00 0.00 0.00 83 1012.5
20260506181604 42 0 0.9 3.5 0.00 0.00 0.00 84 1012.4
20260506181050 42 319 0.0 3.5 0.00 0.00 0.00 84 1012.4
20260506180554 42 315 0.9 2.6 0.00 0.00 0.00 85 1012.4
20260506180056 42 315 0.9 2.6 0.00 0.00 0.00 83 1012.3
20260506175549 42 315 0.9 2.6 0.00 0.00 0.00 84 1012.3
20260506175055 42 0 0.0 3.5 0.00 0.00 0.00 83 1012.3
20260506174556 42 15 0.9 3.5 0.00 0.00 0.00 82 1012.3
20260506174053 42 360 0.9 4.3 0.00 0.00 0.00 84 1012.4
20260506173550 42 281 1.7 4.3 0.00 0.00 0.00 84 1012.3
20260506173127 42 0 0.9 3.5 0.00 0.00 0.00 83 1012.3
20260506172551 42 311 0.0 2.6 0.00 0.00 0.00 82 1012.2
20260506172053 42 344 0.0 4.3 0.00 0.00 0.00 81 1012.2
20260506171604 42 343 0.9 4.3 0.00 0.00 0.00 82 1012.2
20260506171052 42 350 0.9 3.5 0.00 0.00 0.00 83 1012.2
20260506170552 42 78 0.9 2.6 0.00 0.00 0.00 83 1012.1
20260506170112 42 346 1.7 2.6 0.00 0.00 0.00 83 1012.2
20260506165552 42 346 0.0 2.6 0.00 0.00 0.00 83 1012.1
20260506165050 42 0 0.9 2.6 0.00 0.00 0.00 83 1012.1
20260506164600 42 346 0.0 1.7 0.00 0.00 0.00 84 1012.0
20260506164050 42 346 0.0 1.7 0.00 0.00 0.00 84 1011.9
20260506163549 42 346 0.0 2.6 0.00 0.00 0.00 86 1011.9
20260506163059 41 320 0.0 2.6 0.00 0.00 0.00 86 1011.8
20260506162551 41 0 0.0 2.6 0.00 0.00 0.00 88 1011.8
20260506162051 41 0 0.0 2.6 0.00 0.00 0.00 88 1011.9
20260506161557 40 341 0.0 2.6 0.00 0.00 0.00 87 1011.8
20260506161051 40 0 0.9 2.6 0.00 0.00 0.00 88 1011.8
20260506160551 40 0 0.0 1.7 0.00 0.00 0.00 90 1011.7
20260506160058 40 341 0.9 1.7 0.00 0.00 0.00 90 1011.7
20260506155555 39 30 0.0 0.0 0.00 0.00 0.00 93 1011.6
20260506155055 39 0 0.0 0.0 0.00 0.00 0.00 93 1011.5
20260506154613 39 0 0.0 0.0 0.00 0.00 0.00 93 1011.5
20260506154050 38 0 0.0 0.0 0.00 0.00 0.00 93 1011.4
20260506153550 38 0 0.0 0.0 0.00 0.00 0.00 93 1011.4
20260506153054 38 0 0.0 0.0 0.00 0.00 0.00 93 1011.4
20260506152552 38 0 0.0 0.0 0.00 0.00 0.00 92 1011.6
20260506152052 38 0 0.0 0.0 0.00 0.00 0.00 92 1011.5
20260506151558 37 0 0.0 0.0 0.00 0.00 0.00 92 1011.6
20260506151052 37 0 0.0 0.0 0.00 0.00 0.00 92 1011.6
20260506150551 37 0 0.0 0.9 0.00 0.00 0.00 92 1011.5
20260506150055 37 0 0.0 1.7 0.00 0.00 0.00 92 1011.5
20260506145552 37 0 0.0 1.7 0.00 0.00 0.00 92 1011.4
20260506145052 37 0 0.0 0.0 0.00 0.00 0.00 92 1011.5
20260506144559 37 0 0.0 0.0 0.00 0.00 0.00 92 1011.5
20260506144052 37 0 0.0 0.0 0.00 0.00 0.00 92 1011.5
20260506143555 37 0 0.0 0.0 0.00 0.00 0.00 92 1011.5
20260506143055 37 0 0.0 2.6 0.00 0.00 0.00 92 1011.4
20260506142549 37 0 0.0 2.6 0.00 0.00 0.00 92 1011.5
20260506142049 37 0 0.0 2.6 0.00 0.00 0.00 91 1011.3
20260506141600 37 0 0.0 1.7 0.00 0.00 0.00 91 1011.4
20260506141053 37 0 0.0 0.0 0.00 0.00 0.00 91 1011.4
20260506140553 37 0 0.0 0.0 0.00 0.00 0.00 90 1011.4
20260506140054 37 0 0.0 0.0 0.00 0.00 0.00 90 1011.3
20260506135552 37 0 0.0 0.0 0.00 0.00 0.00 90 1011.3
20260506135051 37 0 0.0 0.0 0.00 0.00 0.00 90 1011.4
20260506134557 37 0 0.0 0.0 0.00 0.00 0.00 89 1011.3
20260506134055 37 0 0.0 0.0 0.00 0.00 0.00 89 1011.4
20260506133552 37 0 0.0 0.9 0.00 0.00 0.00 88 1011.4
20260506133109 37 0 0.0 0.9 0.00 0.00 0.00 87 1011.4
20260506132551 37 0 0.0 1.7 0.00 0.00 0.00 87 1011.3
20260506132053 38 0 0.0 1.7 0.00 0.00 0.00 87 1011.4
20260506131554 38 0 0.0 0.9 0.00 0.00 0.00 87 1011.3
20260506131052 38 0 0.0 0.9 0.00 0.00 0.00 87 1011.3
20260506130552 38 0 0.0 1.7 0.00 0.00 0.00 87 1011.2
20260506130119 38 0 0.0 2.6 0.00 0.00 0.00 86 1011.2
20260506125551 38 0 0.9 2.6 0.00 0.00 0.00 86 1011.2
20260506125052 38 0 0.0 0.0 0.00 0.00 0.00 86 1011.2
20260506124554 38 0 0.0 0.9 0.00 0.00 0.00 86 1011.1
20260506124051 38 0 0.0 1.7 0.00 0.00 0.00 85 1011.2
20260506123552 39 0 0.0 1.7 0.00 0.00 0.00 85 1011.1
20260506123057 38 30 0.0 2.6 0.00 0.00 0.00 85 1011.1
20260506122553 38 30 0.0 2.6 0.00 0.00 0.00 85 1011.1
20260506122137 38 352 0.9 2.6 0.00 0.00 0.00 85 1011.0
20260506121556 38 352 0.0 1.7 0.00 0.00 0.00 85 1011.1
20260506121052 39 0 0.0 1.7 0.00 0.00 0.00 84 1011.0
20260506120552 39 352 0.0 2.6 0.00 0.00 0.00 84 1011.0
20260506115554 39 262 0.0 2.6 0.00 0.00 0.00 84 1010.9
20260506115051 39 0 0.0 2.6 0.00 0.00 0.00 83 1010.9
20260506114604 39 262 0.0 2.6 0.00 0.00 0.00 83 1010.8
20260506114051 39 0 0.0 2.6 0.00 0.00 0.00 83 1010.8
20260506113551 39 0 0.9 1.7 0.00 0.00 0.00 82 1010.8
20260506113056 40 0 0.0 2.6 0.00 0.00 0.00 82 1010.8
20260506112553 40 262 0.0 3.5 0.00 0.00 0.00 82 1010.9
20260506112055 40 262 1.7 4.3 0.00 0.00 0.00 82 1010.8
20260506111553 40 228 1.7 4.3 0.00 0.00 0.00 82 1010.7
20260506111052 40 0 0.9 3.5 0.00 0.00 0.00 81 1010.7
20260506110552 40 265 0.9 6.1 0.00 0.00 0.00 81 1010.7